Location: Helion Bumpstead
(52.0500°N, 0.4000°E)
Time: 22:30:16
(UTC+00:00)

Cosmos 1725 Rocket - Pass Details

Date: 20 February 2026
Orbit: 962 x 989 km, 82.9° (Epoch: 11 March)

Event Time Altitude Azimuth Distance (km) Brightness Sun altitude
Rises 06:13:15 0° 194° (SSW) 3,635 6.9 -8.4°
Reaches altitude 10° 06:15:45 10° 196° (SSW) 2,693 6.2 -8.0°
Maximum altitude 06:21:54 75° 282° (WNW) 1,003 4.0 -7.1°
Drops below altitude 10° 06:28:09 10° 8° (N) 2,723 6.3 -6.1°
Sets 06:30:41 0° 10° (N) 3,678 7.0 -5.8°
